Cadillac, MI

11:56 PM EST on November 18, 2017 (GMT -0500)
Wexford County

Weather History for KCAD - November, 2013

Change the Weather History Date:

Sunday, November 3, 2013

  Actual Average Record
Temperature  
Mean Temperature 32 °F -  
Max Temperature 42 °F 49 °F 71 °F (2015)
Min Temperature 23 °F 33 °F 4 °F (1951)
Degree Days  
Heating Degree Days 32    
Moisture  
Dew Point 28 °F    
Average Humidity 79    
Maximum Humidity 92    
Minimum Humidity 60    
Precipitation  
Precipitation 0.00 in - - ()
Sea Level Pressure  
Sea Level Pressure 30.26 in    
Wind  
Wind Speed 4 mph (ESE)    
Max Wind Speed 13 mph    
Max Gust Speed 16 mph    
Visibility 10 miles    
Events      
Averages and records for this station are not official NWS values.
T = Trace of Precipitation, MM = Missing Value Source: NWS Daily Summary

Daily Weather History Graph

Daily Weather History Graph

Search for Another Location

Airport or City:

Trip Planner

Search our weather history database for the weather conditions in past years. The results will help you decide how hot, cold, wet, or windy it might be!

Date:

Astronomy

Nov. 03, 2013 Rise Set
Actual Time 7:21 AM EST 5:28 PM EST
Civil Twilight 6:51 AM EST 5:58 PM EST
Nautical Twilight 6:16 AM EST 6:32 PM EST
Astronomical Twilight 5:43 AM EST 7:06 PM EST
Moon 7:25 AM EST (11/3) 5:41 PM EST (11/3)
Length of Visible Light 11h 07m
Length of Day
10h 06m
New Moon, 0% of the Moon is Illuminated
Nov 3
New Moon
Nov 10
First Quarter
Nov 17
Full
Nov 25
Last Quarter
Dec 2
New

Hourly Weather History & Observations

Time (EST) Temp. Windchill Dew Point Humidity Pressure Visibility Wind Dir Wind Speed Gust Speed Precip Events Conditions
12:14 AM 33.6 °F 29.4 °F 29.8 °F 86% 30.10 in 10.0 mi ENE 4.6 mph - N/A   Scattered Clouds
12:35 AM 31.5 °F 28.1 °F 27.9 °F 87% 30.11 in 10.0 mi East 3.5 mph - N/A   Clear
12:55 AM 31.5 °F - 28.4 °F 88% 30.11 in 10.0 mi Calm Calm - N/A   Clear
1:14 AM 31.5 °F - 28.4 °F 88% 30.12 in 10.0 mi Calm Calm - N/A   Mostly Cloudy
1:35 AM 31.5 °F - 28.4 °F 88% 30.13 in 10.0 mi Calm Calm - N/A   Overcast
1:54 AM 31.5 °F - 28.9 °F 90% 30.14 in 10.0 mi Calm Calm - N/A   Overcast
1:14 AM 31.5 °F - 29.1 °F 91% 30.13 in 10.0 mi Calm Calm - N/A   Mostly Cloudy
1:35 AM 31.5 °F - 28.9 °F 90% 30.13 in 10.0 mi Calm Calm - N/A   Clear
1:54 AM 28.9 °F - 26.4 °F 90% 30.14 in 10.0 mi Calm Calm - N/A   Clear
2:15 AM 28.9 °F - 26.6 °F 91% 30.15 in 10.0 mi Calm Calm - N/A   Clear
2:35 AM 28.9 °F - 26.6 °F 91% 30.16 in 10.0 mi Calm Calm - N/A   Clear
2:54 AM 28.6 °F - 26.4 °F 92% 30.16 in 10.0 mi Calm Calm - N/A   Clear
3:15 AM 26.6 °F - 24.3 °F 91% 30.17 in 10.0 mi Calm Calm - N/A   Clear
3:35 AM 26.4 °F - 23.9 °F 90% 30.18 in 10.0 mi Calm Calm - N/A   Clear
3:54 AM 26.4 °F - 24.1 °F 91% 30.18 in 10.0 mi Calm Calm - N/A   Clear
4:15 AM 26.4 °F - 23.9 °F 90% 30.19 in 10.0 mi Calm Calm - N/A   Clear
4:35 AM 24.8 °F - 22.3 °F 90% 30.20 in 10.0 mi Calm Calm - N/A   Clear
4:54 AM 25.3 °F - 22.6 °F 89% 30.21 in 10.0 mi Calm Calm - N/A   Clear
5:15 AM 24.4 °F - 21.9 °F 90% 30.22 in 10.0 mi Calm Calm - N/A   Clear
5:35 AM 24.6 °F - 21.7 °F 89% 30.23 in 10.0 mi Calm Calm - N/A   Scattered Clouds
5:54 AM 24.4 °F - 21.6 °F 89% 30.23 in 10.0 mi Calm Calm - N/A   Overcast
6:15 AM 26.1 °F - 23.2 °F 89% 30.23 in 10.0 mi Calm Calm - N/A   Overcast
6:35 AM 25.2 °F - 22.5 °F 89% 30.23 in 10.0 mi Calm Calm - N/A   Scattered Clouds
6:54 AM 24.3 °F - 21.2 °F 88% 30.24 in 10.0 mi Calm Calm - N/A   Clear
7:15 AM 23.9 °F - 21.0 °F 89% 30.26 in 10.0 mi Calm Calm - N/A   Scattered Clouds
7:35 AM 24.3 °F - 21.4 °F 89% 30.26 in 10.0 mi Calm Calm - N/A   Mostly Cloudy
7:54 AM 24.8 °F - 21.9 °F 89% 30.27 in 10.0 mi Calm Calm - N/A   Mostly Cloudy
8:15 AM 27.7 °F - 25.0 °F 90% 30.27 in 10.0 mi Calm Calm - N/A   Scattered Clouds
8:35 AM 31.5 °F 28.1 °F 28.6 °F 89% 30.28 in 10.0 mi East 3.5 mph - N/A   Clear
8:54 AM 31.5 °F 28.1 °F 28.2 °F 88% 30.28 in 10.0 mi ENE 3.5 mph - N/A   Clear
9:15 AM 33.8 °F - 30.2 °F 87% 30.30 in 10.0 mi Calm Calm - N/A   Clear
9:35 AM 36.1 °F 29.9 °F 31.5 °F 83% 30.30 in 10.0 mi ESE 8.1 mph - N/A   Clear
9:54 AM 36.1 °F 31.4 °F 30.7 °F 81% 30.30 in 10.0 mi ESE 5.8 mph - N/A   Clear
10:15 AM 37.6 °F 32.3 °F 30.4 °F 75% 30.31 in 10.0 mi SE 6.9 mph - N/A   Mostly Cloudy
10:34 AM 37.4 °F 30.8 °F 30.0 °F 75% 30.31 in 10.0 mi SE 9.2 mph - N/A   Overcast
10:55 AM 37.4 °F 30.8 °F 29.8 °F 74% 30.31 in 10.0 mi SE 9.2 mph - N/A   Overcast
11:15 AM 38.7 °F 32.9 °F 30.2 °F 72% 30.32 in 10.0 mi ESE 8.1 mph - N/A   Overcast
11:34 AM 38.7 °F 32.9 °F 29.7 °F 70% 30.32 in 10.0 mi SE 8.1 mph - N/A   Overcast
11:55 AM 38.7 °F 32.4 °F 29.8 °F 71% 30.32 in 10.0 mi SE 9.2 mph - N/A   Overcast
12:15 PM 38.7 °F 34.3 °F 30.2 °F 72% 30.32 in 10.0 mi SE 5.8 mph - N/A   Overcast
12:34 PM 38.7 °F 31.8 °F 30.2 °F 72% 30.32 in 10.0 mi SE 10.4 mph - N/A   Overcast
12:55 PM 39.9 °F 33.4 °F 30.4 °F 69% 30.31 in 10.0 mi SE 10.4 mph - N/A   Overcast
1:15 PM 41.2 °F 34.5 °F 30.6 °F 66% 30.31 in 10.0 mi ESE 11.5 mph 16.1 mph N/A   Mostly Cloudy
1:34 PM 41.2 °F 35.5 °F 30.6 °F 66% 30.30 in 10.0 mi SE 9.2 mph - N/A   Mostly Cloudy
1:55 PM 41.2 °F 34.5 °F 30.6 °F 66% 30.30 in 10.0 mi ESE 11.5 mph - N/A   Mostly Cloudy
2:15 PM 41.2 °F 34.5 °F 29.8 °F 64% 30.30 in 10.0 mi SE 11.5 mph - N/A   Mostly Cloudy
2:34 PM 42.1 °F 39.2 °F 30.4 °F 63% 30.30 in 10.0 mi SE 4.6 mph - N/A   Mostly Cloudy
2:55 PM 42.1 °F 36.6 °F 30.0 °F 62% 30.30 in 10.0 mi SE 9.2 mph - N/A   Mostly Cloudy
3:15 PM 41.9 °F 38.2 °F 30.0 °F 63% 30.30 in 10.0 mi ESE 5.8 mph - N/A   Mostly Cloudy
3:34 PM 42.4 °F 36.1 °F 29.3 °F 60% 30.30 in 10.0 mi ESE 11.5 mph - N/A   Mostly Cloudy
3:55 PM 41.9 °F 37.5 °F 30.2 °F 63% 30.30 in 10.0 mi ESE 6.9 mph - N/A   Overcast
4:15 PM 41.2 °F 35.0 °F 29.5 °F 63% 30.30 in 10.0 mi SE 10.4 mph - N/A   Overcast
4:34 PM 41.2 °F 35.0 °F 30.0 °F 65% 30.30 in 10.0 mi SE 10.4 mph - N/A   Overcast
4:55 PM 41.2 °F 35.5 °F 30.4 °F 65% 30.31 in 10.0 mi ESE 9.2 mph - N/A   Overcast
5:15 PM 41.2 °F 34.1 °F 30.7 °F 66% 30.31 in 10.0 mi ESE 12.7 mph - N/A   Overcast
5:34 PM 41.2 °F 36.6 °F 30.2 °F 65% 30.32 in 10.0 mi SE 6.9 mph - N/A   Overcast
5:55 PM 39.4 °F 32.7 °F 28.8 °F 66% 30.32 in 10.0 mi ESE 10.4 mph - N/A   Overcast
6:15 PM 39.2 °F 33.0 °F 28.8 °F 66% 30.33 in 10.0 mi SE 9.2 mph - N/A   Overcast
6:34 PM 38.8 °F 33.2 °F 28.4 °F 66% 30.32 in 10.0 mi ESE 8.1 mph - N/A   Overcast
6:55 PM 38.7 °F 32.4 °F 29.3 °F 69% 30.32 in 10.0 mi ESE 9.2 mph - N/A   Mostly Cloudy
7:14 PM 37.9 °F 31.5 °F 30.0 °F 73% 30.32 in 10.0 mi ESE 9.2 mph - N/A   Scattered Clouds
7:35 PM 37.2 °F 30.0 °F 29.7 °F 74% 30.33 in 10.0 mi ESE 10.4 mph - N/A   Scattered Clouds
7:55 PM 36.1 °F 29.3 °F 28.9 °F 75% 30.33 in 10.0 mi ESE 9.2 mph - N/A   Scattered Clouds
8:14 PM 36.1 °F 29.3 °F 29.5 °F 77% 30.32 in 10.0 mi ESE 9.2 mph - N/A   Clear
8:35 PM 36.1 °F 29.3 °F 30.0 °F 78% 30.32 in 10.0 mi ESE 9.2 mph - N/A   Clear
8:55 PM 36.1 °F 29.3 °F 30.2 °F 79% 30.33 in 10.0 mi ESE 9.2 mph - N/A   Clear
9:14 PM 36.1 °F 29.3 °F 30.4 °F 80% 30.33 in 10.0 mi ESE 9.2 mph - N/A   Clear
9:35 PM 36.1 °F 29.9 °F 30.6 °F 80% 30.33 in 10.0 mi ESE 8.1 mph - N/A   Clear
9:55 PM 36.1 °F 30.6 °F 30.2 °F 79% 30.34 in 10.0 mi SE 6.9 mph - N/A   Clear
10:14 PM 36.1 °F 29.9 °F 29.7 °F 77% 30.34 in 10.0 mi SE 8.1 mph - N/A   Clear
10:35 PM 36.1 °F 29.9 °F 29.8 °F 78% 30.34 in 10.0 mi SE 8.1 mph - N/A   Clear
10:55 PM 36.1 °F 30.6 °F 28.9 °F 75% 30.35 in 10.0 mi SE 6.9 mph - N/A   Clear